Back to catalog

STARLINK-33662

AliveCommunicationsVLEO
NORAD 63285·PAYLOAD·🇺🇸 United States

Launched Mar 15, 2025 from Cape Canaveral Space Force Station

Loading…

Next Passes (next 24 hours)

TLE

FreshSource: CelesTrak SupGP

Epoch: Sep 15, 2026, 03:33 UTC

1 63285C 25053W   26258.14840278 -.00041051  00000+0 -14871-2 0  2589
2 63285  43.0028 251.6969 0001364 268.2540 322.1553 15.27593115    13

Track STARLINK-33662 in real time with AllMySat

Download on the App Store